Flag for Ecuador Weather past 2 weeks in Quito, Ecuador

Now
50 °F

Partly cloudy.


Feels Like: 47 °F
Forecast: 47 / 71 °F
Wind: 7 mph from South

Location: Latacunga Airport

Current Time: Sep 2, 2015 at 4:13:24 AM

Latest Report: Sep 2, 2015 at 4:00 AM


Visibility: N/A

Pressure: 30.45 "Hg (21.65 "Hg at 2826m altitude)

Humidity: 100%

Dew point: 50 °F

Location of QuitoLocation

Historic Weather in Quito — Graph

°F

Quito temperature yesterday

Maximum temperature yesterday: 66 °F (at 3:00 PM)
Minimum temperature yesterday: 48 °F (at 6:00 AM)
Average temperature yesterday: 55 °F

Past Weeks' High & Low Weather Summary

 TemperatureHumidityPressure
High72 °F (Aug 22, 1:00 PM)100% (Aug 18, 3:00 AM)30.51 "Hg (Aug 18, 3:00 AM)
Low37 °F (Aug 18, 4:00 AM)35% (Aug 18, 2:00 PM)30.30 "Hg (Aug 22, 4:00 PM)
Average54 °F83%30.42 "Hg
* Reported Aug 18 3:00 AM — Sep 2 3:00 AM, Quito, Weather by CustomWeather, © 2015

Note: Actual official high and low records may vary slightly from our data, if they occured in-between our weather recording intervals... More about our weather records

Advertising

Quito weather history for previous 24 hours

 ConditionsComfort  
Time TempWeatherWind HumidityBarometerVisibility
3:00 AM
Wed, Sep 2
50 °FPassing clouds.6 mph100%30.45 "HgN/A
2:00 AM50 °FPassing clouds.8 mph100%30.48 "HgN/A
1:00 AM50 °FPassing clouds.9 mph100%30.48 "HgN/A
12:00 AM52 °FPassing clouds.7 mph100%30.48 "HgN/A
11:00 PM
Tue, Sep 1
52 °FPassing clouds.6 mph100%30.51 "HgN/A
10:00 PM52 °FPassing clouds.8 mph100%30.48 "HgN/A
9:00 PM52 °FPassing clouds.12 mph100%30.48 "HgN/A
8:00 PM52 °FPassing clouds.13 mph100%30.45 "HgN/A
7:00 PM54 °FPassing clouds.17 mph94%30.42 "HgN/A
6:00 PM55 °FScattered clouds.16 mph94%30.39 "HgN/A
4:00 PM61 °FScattered clouds.22 mph68%30.36 "HgN/A
3:00 PM66 °FPassing clouds.24 mph60%30.36 "HgN/A
2:00 PM64 °FScattered clouds.21 mph64%30.42 "HgN/A
1:00 PM63 °FScattered clouds.21 mph68%30.42 "HgN/A
12:00 PM61 °FBroken clouds.21 mph72%30.45 "HgN/A
11:00 AM59 °FBroken clouds.18 mph77%30.48 "HgN/A
10:00 AM57 °FScattered clouds.14 mph88%30.48 "HgN/A
9:00 AM54 °FBroken clouds.13 mph100%30.48 "HgN/A
8:00 AM52 °FBroken clouds.17 mph100%30.48 "HgN/A
7:00 AM50 °FScattered clouds.14 mph100%30.45 "HgN/A
6:00 AM48 °FPassing clouds.13 mph100%30.42 "HgN/A
5:00 AM50 °FPartly cloudy.13 mph100%30.42 "HgN/A
Weather by CustomWeather, © 2015

See weather overviewHow to use our weather pages